When you browse on this site, cookies collect data to enhance your experience and personalize the content and advertising you see.
Visit our Privacy Policy to learn more. By continuing to use the site, you agree to this use of cookies and data.
  • In Deutschland
  • Länderverzeichnis
  • Für 7 Tage
  • Wassertemperatur
  • Satellitenkarten
  • Wetterkarte
  • Widgets
  • user-avatar
    Anmelden

    Stündliche Wetter Nakhimove

    Heute, 21 Januar, Montag

    Zeit Temperatur Niederschläge Wind Luftdruck Luftfeuchtigkeit
    00:00 +1°C° 0 mm 3 m/S 761 mmHg 86%
    01:00 +1°C° 0 mm 3 m/S 760 mmHg 86%
    02:00 +2°C° 0 mm 3 m/S 760 mmHg 87%
    03:00 +2°C° 0 mm 3 m/S 759 mmHg 86%
    04:00 +2°C° 0 mm 3 m/S 759 mmHg 86%
    05:00 +3°C° 0 mm 3 m/S 758 mmHg 86%
    06:00 +3°C° 0.1 mm 4 m/S 758 mmHg 85%
    07:00 +4°C° 0.1 mm 4 m/S 757 mmHg 84%
    08:00 +4°C° 0.1 mm 4 m/S 757 mmHg 83%
    09:00 +5°C° 0.1 mm 5 m/S 757 mmHg 80%
    10:00 +7°C° 0.1 mm 5 m/S 757 mmHg 78%
    11:00 +8°C° 0.1 mm 6 m/S 757 mmHg 76%
    12:00 +8°C° 0 mm 6 m/S 757 mmHg 80%
    13:00 +7°C° 0 mm 6 m/S 757 mmHg 83%
    14:00 +6°C° 0 mm 5 m/S 757 mmHg 87%
    15:00 +5°C° 0.1 mm 5 m/S 757 mmHg 87%
    16:00 +3°C° 0.1 mm 5 m/S 758 mmHg 88%
    17:00 +3°C° 0.1 mm 5 m/S 758 mmHg 88%
    18:00 +1°C° 0.1 mm 5 m/S 759 mmHg 87%
    19:00 0°C° 0.1 mm 5 m/S 759 mmHg 86%
    20:00 -1°C° 0.1 mm 5 m/S 760 mmHg 85%
    21:00 -1°C° 0.1 mm 5 m/S 760 mmHg 84%
    22:00 -2°C° 0.1 mm 5 m/S 761 mmHg 84%
    23:00 -2°C° 0.1 mm 5 m/S 761 mmHg 83%

    Morgen, 22 Januar, Dienstag

    Zeit Temperatur Niederschläge Wind Luftdruck Luftfeuchtigkeit
    00:00 -2°C° 0 mm 4 m/S 762 mmHg 83%
    01:00 -3°C° 0 mm 4 m/S 762 mmHg 83%
    02:00 -3°C° 0 mm 4 m/S 763 mmHg 83%
    03:00 -4°C° 0 mm 4 m/S 763 mmHg 83%
    04:00 -4°C° 0 mm 3 m/S 763 mmHg 82%
    05:00 -4°C° 0 mm 3 m/S 763 mmHg 81%
    06:00 -4°C° 0 mm 3 m/S 764 mmHg 81%
    07:00 -4°C° 0 mm 3 m/S 764 mmHg 80%
    08:00 -4°C° 0 mm 3 m/S 764 mmHg 79%
    09:00 -4°C° 0 mm 3 m/S 765 mmHg 76%
    10:00 -2°C° 0 mm 3 m/S 765 mmHg 73%
    11:00 -1°C° 0 mm 3 m/S 765 mmHg 70%
    12:00 -1°C° 0 mm 3 m/S 764 mmHg 69%
    13:00 -1°C° 0 mm 3 m/S 764 mmHg 68%
    14:00 -1°C° 0 mm 4 m/S 764 mmHg 68%
    15:00 -2°C° 0 mm 4 m/S 764 mmHg 72%
    16:00 -3°C° 0 mm 4 m/S 764 mmHg 76%
    17:00 -4°C° 0 mm 4 m/S 763 mmHg 80%
    18:00 -4°C° 0 mm 4 m/S 763 mmHg 79%
    19:00 -4°C° 0 mm 4 m/S 763 mmHg 79%
    20:00 -5°C° 0 mm 5 m/S 763 mmHg 78%
    21:00 -3°C° 0 mm 4 m/S 763 mmHg 78%
    22:00 -3°C° 0 mm 4 m/S 763 mmHg 78%
    23:00 -3°C° 0 mm 4 m/S 762 mmHg 78%

    übermorgen, 23 Januar, Mittwoch

    Zeit Temperatur Niederschläge Wind Luftdruck Luftfeuchtigkeit
    00:00 -3°C° 0 mm 4 m/S 762 mmHg 80%
    01:00 -3°C° 0 mm 4 m/S 761 mmHg 82%
    02:00 -3°C° 0 mm 4 m/S 761 mmHg 84%
    03:00 -3°C° 0 mm 4 m/S 760 mmHg 86%
    04:00 -3°C° 0 mm 4 m/S 760 mmHg 88%
    05:00 -3°C° 0 mm 4 m/S 760 mmHg 90%
    06:00 -3°C° 0 mm 4 m/S 759 mmHg 90%
    07:00 -2°C° 0 mm 4 m/S 759 mmHg 90%
    08:00 -2°C° 0 mm 4 m/S 759 mmHg 90%
    09:00 +1°C° 0 mm 5 m/S 759 mmHg 82%
    10:00 +3°C° 0 mm 6 m/S 758 mmHg 74%
    11:00 +5°C° 0 mm 6 m/S 758 mmHg 66%
    12:00 +7°C° 0 mm 6 m/S 757 mmHg 67%
    13:00 +7°C° 0 mm 6 m/S 757 mmHg 68%
    14:00 +8°C° 0 mm 6 m/S 756 mmHg 69%
    15:00 +7°C° 0 mm 6 m/S 756 mmHg 74%
    16:00 +5°C° 0 mm 6 m/S 755 mmHg 78%
    17:00 +4°C° 0 mm 6 m/S 755 mmHg 83%
    18:00 +4°C° 0 mm 6 m/S 755 mmHg 81%
    19:00 +4°C° 0 mm 6 m/S 755 mmHg 80%
    20:00 +5°C° 0 mm 6 m/S 755 mmHg 78%
    21:00 +5°C° 0 mm 6 m/S 755 mmHg 77%
    22:00 +5°C° 0 mm 6 m/S 755 mmHg 76%
    23:00 +6°C° 0 mm 5 m/S 755 mmHg 75%

    24 Januar, Donnerstag

    Zeit Temperatur Niederschläge Wind Luftdruck Luftfeuchtigkeit
    00:00 +6°C° 0.1 mm 5 m/S 754 mmHg 76%
    01:00 +7°C° 0.1 mm 5 m/S 754 mmHg 77%
    02:00 +7°C° 0.1 mm 5 m/S 754 mmHg 79%
    03:00 +7°C° 0.1 mm 5 m/S 754 mmHg 81%
    04:00 +7°C° 0.1 mm 5 m/S 754 mmHg 84%
    05:00 +7°C° 0.1 mm 5 m/S 754 mmHg 87%
    06:00 +7°C° 0 mm 4 m/S 755 mmHg 88%
    07:00 +7°C° 0 mm 4 m/S 755 mmHg 90%
    08:00 +7°C° 0 mm 4 m/S 755 mmHg 91%
    09:00 +8°C° 0 mm 4 m/S 755 mmHg 88%
    10:00 +10°C° 0 mm 4 m/S 756 mmHg 84%
    11:00 +10°C° 0 mm 3 m/S 756 mmHg 81%
    12:00 +11°C° 0.1 mm 3 m/S 756 mmHg 81%
    13:00 +12°C° 0.1 mm 2 m/S 755 mmHg 81%
    14:00 +12°C° 0.1 mm 1 m/S 755 mmHg 81%
    15:00 +10°C° 0 mm 2 m/S 755 mmHg 84%
    16:00 +9°C° 0 mm 2 m/S 755 mmHg 88%
    17:00 +8°C° 0 mm 3 m/S 755 mmHg 91%
    18:00 +7°C° 0 mm 4 m/S 755 mmHg 92%
    19:00 +6°C° 0 mm 4 m/S 755 mmHg 93%
    20:00 +5°C° 0 mm 5 m/S 755 mmHg 94%
    21:00 +5°C° 0 mm 5 m/S 755 mmHg 94%
    22:00 +3°C° 0 mm 5 m/S 755 mmHg 94%
    23:00 +3°C° 0 mm 6 m/S 755 mmHg 94%

    25 Januar, Freitag

    Zeit Temperatur Niederschläge Wind Luftdruck Luftfeuchtigkeit
    00:00 +2°C° 0 mm 6 m/S 755 mmHg 93%
    01:00 +2°C° 0 mm 6 m/S 755 mmHg 93%
    02:00 +2°C° 0 mm 6 m/S 755 mmHg 92%
    03:00 +2°C° 0 mm 6 m/S 754 mmHg 92%
    04:00 +1°C° 0 mm 6 m/S 754 mmHg 92%
    05:00 +1°C° 0 mm 5 m/S 754 mmHg 92%
    06:00 +1°C° 0 mm 5 m/S 754 mmHg 92%
    07:00 +1°C° 0 mm 5 m/S 755 mmHg 91%
    08:00 +1°C° 0 mm 5 m/S 755 mmHg 91%
    09:00 +3°C° 0 mm 4 m/S 755 mmHg 89%
    10:00 +3°C° 0 mm 4 m/S 755 mmHg 87%
    11:00 +4°C° 0 mm 4 m/S 755 mmHg 85%
    12:00 +5°C° 0 mm 3 m/S 755 mmHg 84%
    13:00 +5°C° 0 mm 3 m/S 755 mmHg 82%
    14:00 +7°C° 0 mm 2 m/S 755 mmHg 81%
    15:00 +7°C° 0 mm 2 m/S 755 mmHg 85%
    16:00 +6°C° 0 mm 2 m/S 755 mmHg 89%
    17:00 +6°C° 0 mm 2 m/S 755 mmHg 92%
    18:00 +6°C° 0 mm 2 m/S 755 mmHg 94%
    19:00 +5°C° 0 mm 2 m/S 755 mmHg 95%
    20:00 +5°C° 0 mm 2 m/S 755 mmHg 96%
    21:00 +5°C° 0 mm 2 m/S 755 mmHg 97%
    22:00 +6°C° 0 mm 1 m/S 755 mmHg 97%
    23:00 +6°C° 0 mm 1 m/S 755 mmHg 97%

    26 Januar, Samstag

    Zeit Temperatur Niederschläge Wind Luftdruck Luftfeuchtigkeit
    00:00 +6°C° 0 mm 1 m/S 755 mmHg 97%
    01:00 +6°C° 0 mm 1 m/S 755 mmHg 96%
    02:00 +6°C° 0 mm 1 m/S 755 mmHg 96%
    03:00 +6°C° 0 mm 1 m/S 755 mmHg 96%
    04:00 +5°C° 0 mm 2 m/S 755 mmHg 96%
    05:00 +5°C° 0 mm 2 m/S 755 mmHg 96%
    06:00 +5°C° 0 mm 2 m/S 755 mmHg 96%
    07:00 +5°C° 0 mm 2 m/S 755 mmHg 96%
    08:00 +5°C° 0 mm 2 m/S 755 mmHg 96%
    09:00 +5°C° 0 mm 2 m/S 754 mmHg 92%
    10:00 +5°C° 0 mm 3 m/S 754 mmHg 88%
    11:00 +7°C° 0 mm 3 m/S 754 mmHg 83%
    12:00 +7°C° 0 mm 3 m/S 754 mmHg 83%
    13:00 +6°C° 0 mm 4 m/S 754 mmHg 83%
    14:00 +7°C° 0 mm 4 m/S 753 mmHg 83%
    15:00 +6°C° 0.1 mm 4 m/S 753 mmHg 87%
    16:00 +5°C° 0.1 mm 4 m/S 753 mmHg 90%
    17:00 +4°C° 0.1 mm 4 m/S 753 mmHg 93%
    18:00 +4°C° 0.1 mm 4 m/S 753 mmHg 93%
    19:00 +4°C° 0.1 mm 4 m/S 753 mmHg 94%
    20:00 +4°C° 0.1 mm 3 m/S 753 mmHg 94%
    21:00 +5°C° 0.6 mm 2 m/S 753 mmHg 95%
    22:00 +6°C° 0.6 mm 1 m/S 753 mmHg 95%
    23:00 +6°C° 0.6 mm 1 m/S 752 mmHg 96%
    Mehr zeigen